Flag for Finland Weather past 2 weeks in Helsinki, Finland

Now
34 °F

Overcast.


Feels Like: 34 °F
Forecast: 33 / 37 °F
Wind: 2 mph from South

Location: Helsinki Malmi Airport

Current Time: Mar 5, 2015 at 11:05:26 PM

Latest Report: Mar 5, 2015 at 10:20 PM


Visibility: N/A

Pressure: 30.33 "Hg

Humidity: 93%

Dew point: 32 °F

Location of HelsinkiLocation

Historic Weather in Helsinki — Graph

°F

Helsinki temperature yesterday

Maximum temperature yesterday: 37 °F (at 1:50 PM)
Minimum temperature yesterday: 34 °F (at 12:20 AM)
Average temperature yesterday: 34 °F

Past Weeks' High & Low Weather Summary

 TemperatureHumidityPressure
High39 °F (Feb 19, 6:50 PM)100% (Feb 19, 1:50 AM)30.33 "Hg (Feb 19, 1:50 AM)
Low30 °F (Feb 27, 5:20 PM)60% (Feb 18, 10:20 PM)29.18 "Hg (Feb 22, 8:50 AM)
Average35 °F92%29.75 "Hg
* Reported Feb 18 9:20 PM — Mar 5 9:50 PM, Helsinki, Weather by CustomWeather, © 2015

Note: Actual official high and low records may vary slightly from our data, if they occured in-between our weather recording intervals... More about our weather records

Advertising

Helsinki weather history for previous 24 hours

 ConditionsComfort  
Time TempWeatherWind HumidityBarometerVisibility
9:50 PM
Thu, Mar 5
34 °FOvercast.3 mph93%30.33 "HgN/A
9:20 PM34 °FOvercast.2 mph93%30.33 "HgN/A
8:50 PM34 °FPassing clouds.1 mph93%30.33 "HgN/A
8:20 PM34 °FPassing clouds.5 mph93%30.30 "HgN/A
7:50 PM34 °FPassing clouds.3 mph87%30.30 "HgN/A
7:20 PM34 °FPassing clouds.3 mph93%30.30 "HgN/A
6:50 PM36 °FPassing clouds.5 mph81%30.30 "HgN/A
6:20 PM34 °FPassing clouds.5 mph93%30.30 "HgN/A
5:50 PM36 °FBroken clouds.7 mph81%30.30 "HgN/A
5:20 PM36 °FBroken clouds.5 mph87%30.30 "HgN/A
4:50 PM36 °FPartly sunny.5 mph87%30.30 "HgN/A
4:20 PM34 °FPartly sunny.8 mph93%30.27 "HgN/A
3:50 PM37 °FPartly sunny.3 mph81%30.27 "HgN/A
3:20 PM37 °FPartly sunny.5 mph75%30.27 "HgN/A
2:50 PM36 °FSprinkles. Broken clouds.2 mph87%30.27 "HgN/A
2:20 PM36 °FSprinkles. Broken clouds.6 mph87%30.27 "HgN/A
1:50 PM37 °FScattered showers. Broken clouds.3 mph75%30.24 "HgN/A
1:20 PM37 °FScattered showers. Broken clouds.3 mph75%30.24 "HgN/A
12:50 PM36 °FScattered showers. Broken clouds.3 mph87%30.24 "HgN/A
12:20 PM36 °FScattered showers. Partly sunny.3 mph87%30.24 "HgN/A
11:50 AM36 °FSprinkles. Partly sunny.6 mph87%30.24 "HgN/A
11:20 AM36 °FPartly sunny.3 mph81%30.21 "HgN/A
10:50 AM36 °FPartly sunny.1 mph81%30.21 "HgN/A
10:20 AM36 °FBroken clouds.3 mph87%30.18 "HgN/A
9:50 AM34 °FPartly sunny.3 mph93%30.18 "HgN/A
9:20 AM34 °FLight snow. Partly sunny.5 mph93%30.18 "HgN/A
8:50 AM34 °FPartly sunny.3 mph93%30.15 "HgN/A
8:20 AM34 °FPartly sunny.2 mph93%30.15 "HgN/A
7:50 AM32 °FLow clouds.2 mph100%30.15 "HgN/A
7:20 AM32 °FLight rain. Low clouds.2 mph100%30.12 "HgN/A
6:50 AM32 °FSprinkles. Overcast.2 mph100%30.12 "Hg3 mi
6:20 AM34 °FSprinkles. Low clouds.2 mph93%30.09 "HgN/A
5:20 AM34 °FMostly cloudy.2 mph93%30.09 "HgN/A
4:50 AM34 °FLow clouds.3 mph93%30.07 "HgN/A
3:50 AM34 °FLow clouds.3 mph87%30.07 "HgN/A
3:20 AM34 °FLow clouds.5 mph93%30.04 "HgN/A
2:50 AM34 °FLow clouds.3 mph93%30.04 "HgN/A
2:20 AM34 °FOvercast.2 mph93%30.01 "HgN/A
1:50 AM34 °FLow clouds.5 mph93%30.01 "HgN/A
1:20 AM34 °FSprinkles. Low clouds.5 mph93%30.01 "HgN/A
12:50 AM34 °FLow clouds.3 mph93%29.98 "HgN/A
12:20 AM34 °FLow clouds.7 mph93%29.98 "HgN/A
11:20 PM
Wed, Mar 4
34 °FLight rain. Low clouds.6 mph93%29.95 "HgN/A
Weather by CustomWeather, © 2015

See weather overviewHow to use our weather pages